Regional Weather Roundup
Issued by NWS Jackson, KY

Home | Current Version | Previous Version | Text Only | Print | Product List | Glossary Off
Versions: 1 2 3 4 5 6 7 8 9 10 11 12 13 14 15 16 17 18 19 20 21 22 23 24 25 26 27 28 29 30 31 32 33 34 35 36 37 38 39 40 41 42 43 44 45 46 47 48 49 50

000
ASUS43 KJKL 161110
RWRJKL

EAST KENTUCKY HOURLY WEATHER ROUNDUP
NATIONAL WEATHER SERVICE JACKSON KY
700 AM EDT WED APR 16 2014

NOTE: "FAIR" INDICATES FEW OR NO CLOUDS BELOW 12,000 FEET WITH
NO SIGNIFICANT WEATHER AND/OR OBSTRUCTIONS TO VISIBILITY.

* THESE REPORTS ARE NOT UNDER NWS QUALITY CONTROL AND MAY NOT
  REPORT WEATHER SUCH AS PRECIPITATION AND FOG.

KYZ079-080-083-085-087-088-110-112-115-119-120-161200
...EASTERN KENTUCKY...

CITY           SKY/WX    TMP DP  RH WIND       PRES   REMARKS
JACKSON        CLEAR     27  18  69 VRB5      30.34R HAZE    WCI  22
LONDON         CLEAR     30  20  66 NE5       30.33R WCI  25
SOMERSET*      CLEAR     30  19  64 E5        30.36R WCI  25
MONTICELLO*    CLEAR     42  39  89 NE6       30.35R
WILLIAMSBURG*  CLEAR     27  23  86 E5        30.32  WCI  21
MIDDLESBORO*   CLEAR     27  25  95 CALM      30.34R
HARLAN APT*    SUNNY     28  23  80 CALM      30.32R
BLACK MTN*       N/A     16  14  93 NW8         N/A  WCI   5
PIKEVILLE APT* CLEAR     25  18  74 NE3       30.34R
BIG SANDY*     SUNNY     27  20  76 CALM      30.36R
MOREHEAD APT*  SUNNY     27  18  69 E1        30.40R
$$

KYZ035-036-041-042-044-050-067-078-099-161200
...CENTRAL KENTUCKY...

CITY           SKY/WX    TMP DP  RH WIND       PRES   REMARKS
MT STERLING*   CLEAR     27  23  86 E6        30.38R WCI  20
FLEMING/MASON* CLEAR     25  19  80 E5        30.39R WCI  19
DANVILLE*      CLEAR     27  21  80 CALM      30.36R
RICHMOND*      CLEAR     25  21  86 E5        30.34S WCI  19
LEXINGTON      CLEAR     29  18  63 E6        30.37R WCI  23
FRANKFORT      CLEAR     27  22  81 E3        30.36R
$$

KYZ091>093-OHZ055-061-077-WVZ005-015-034-035-042-161200
...SOUTHERN OHIO/WEST VIRGINIA...

CITY           SKY/WX    TMP DP  RH WIND       PRES   REMARKS
COVINGTON      PTCLDY    28  17  63 SE6       30.37R WCI  22
COLUMBUS       CLEAR     27  17  66 CALM      30.38R
DAYTON         CLEAR     27  15  61 CALM      30.38R
WILMINGTON     CLEAR     24  18  77 CALM      30.37R
HUNTINGTON     CLEAR     26  21  81 CALM      30.39R
CHARLESTON     PTCLDY    26  21  81 CALM      30.37R
PINEVILLE*     CLEAR     25  23  93 MISG      30.37R
BECKLEY        CLEAR     21  12  68 NW3       30.27R
BLUEFIELD      CLEAR     23  13  65 CALM      30.24R
$$

VAZ002-007-008-TNZ017-027-036-066-071-161200
...SOUTHWEST VIRGINIA/EAST TENNESSEE...

CITY           SKY/WX    TMP DP  RH WIND       PRES   REMARKS
WISE*          CLEAR     25  18  74 N5        30.27R WCI  19
ABINGDON*      CLEAR     27  18  69 CALM      30.27R
BRISTOL        CLEAR     27  17  66 N3        30.31R
KNOXVILLE      CLEAR     31  22  69 NE12      30.29R WCI  22
OAK RIDGE      CLEAR     31  24  75 VRB3      30.32R
CROSSVILLE       N/A     27  21  78 NE8       30.24S WCI  19
NASHVILLE      CLEAR     31  23  72 NE6       30.30R WCI  25
$$

...KEY TO REMARKS...
VSB - VISIBILITY IN MILES
WCI - WIND CHILL INDEX
HX  - HEAT INDEX

$$



USA.gov is the U.S. government's official web portal to all federal, state and local government web resources and services.